{"data":{"norad_id":49096,"intl_designator":"2021-075X","name":"ONEWEB-0310","alt_names":[],"object_type":"PAYLOAD","status":"ACTIVE","operator":null,"country":"UK","launch_date":"2021-08-21","launch_site_code":"TYMSC","launch_vehicle":null,"mission":null,"orbit_class":"UNKNOWN","rcs_meters":null,"size_class":null,"mass_kg":null,"dimensions":null,"purposes":["comms"],"wikipedia_slug":null,"has_3d_model":false,"image_url":null,"decayed_at":null,"tle_current":{"epoch":"2026-09-20T03:37:17.397984Z","epoch_age_seconds":52185,"freshness":"FRESH","line1":"1 49096U 21075X   26263.15089581 -.00000294  00000+0 -85196-3 0  9997","line2":"2 49096  87.8979 331.8229 0001846  97.5342 262.5996 13.12443346247648","mean_motion":13.12443346,"eccentricity":0.0001846,"inclination_deg":87.8979,"raan_deg":331.8229,"arg_perigee_deg":97.5342,"mean_anomaly_deg":262.5996,"bstar":-0.00085196,"rev_number":24764,"period_min":109.71902173063,"perigee_km":1212.3204995874,"apogee_km":1215.1234139142,"semimajor_km":7591.8589567508,"source":"CELESTRAK","updated_at":"2026-09-20T09:00:44.656946Z"}}}